Regional Weather Roundup
Issued by NWS

Home | Current Version | Previous Version | Text Only | Print | Product List | Glossary On
Versions: 1 2 3 4 5 6 7 8 9 10 11 12 13 14 15 16 17 18 19 20 21 22 23 24 25 26 27 28 29 30 31 32 33 34 35 36 37 38 39 40 41 42 43 44 45 46 47 48 49 50
000
ASUS44 KBMX 012010
RWRAL

ALABAMA REGIONAL WEATHER ROUNDUP
NATIONAL WEATHER SERVICE BIRMINGHAM AL
300 PM CDT TUE SEP 01 2015

NOTE: "FAIR" INDICATES FEW OR NO CLOUDS BELOW 12,000 FEET
WITH NO SIGNIFICANT WEATHER AND/OR OBSTRUCTIONS TO VISIBILITY.

THE REMARK "TC" DENOTES TEMPERATURE IN DEGREES CELSIUS.

ALZ001>011-014-016>018-020-012100-
NORTH ALABAMA

CITY           SKY/WX    TMP DP  RH WIND       PRES   REMARKS
MUSCLE SHOALS  PTSUNNY   87  67  51 NE3       30.10F HX  90
HUNTSVILLE     PTSUNNY   89  69  51 NW5       30.10F HX  93
DECATUR        PTSUNNY   84  71  65 CALM      30.11F
HALEYVILLE     FAIR      86  66  50 CALM      30.13F
GADSDEN        PTSUNNY   90  66  45 CALM      30.08F HX  92
$$

ALZ012-013-022-023-030>036-040>044-012100-
WEST CENTRAL ALABAMA

CITY           SKY/WX    TMP DP  RH WIND       PRES   REMARKS
TUSCALOOSA     MOSUNNY   90  67  46 E6        30.06F HX  93
$$

ALZ015-024>027-033>036-040>044-012100-
CENTRAL ALABAMA

CITY           SKY/WX    TMP DP  RH WIND       PRES   REMARKS
BIRMINGHAM     CLOUDY    87  67  51 N5        30.11S HX  90
MONTGOMERY     MOSUNNY   95  65  37 CALM      30.05F HX  97
SHELBY CO ARPT MOSUNNY   89  68  49 NE3       30.08F HX  93
MAXWELL AFB    SUNNY     91  68  46 VRB3      30.05F HX  95
GREENVILLE     FAIR      92  67  43 VRB6      30.05F HX  95
$$

ALZ019-021-028-029-037-038-045>048-012100-
EAST CENTRAL ALABAMA

CITY           SKY/WX    TMP DP  RH WIND       PRES   REMARKS
ANNISTON       SUNNY     89  66  46 N5        30.08F HX  91
ALEXANDER CITY MOSUNNY   90  70  50 E3        30.09F HX  95
AUBURN         NOT AVBL
$$

ALZ051>064-012100-
SOUTHWEST ALABAMA

CITY           SKY/WX    TMP DP  RH WIND       PRES   REMARKS
MOBILE         MOSUNNY   90  68  48 S9        30.05F HX  94
BROOKLEY FIELD MOSUNNY   93  66  40 SE5       30.05F HX  96
EVERGREEN      MOSUNNY   91  68  46 E7        30.05F HX  95
$$

ALZ049-050-065>069-012100-
SOUTHEAST ALABAMA

CITY           SKY/WX    TMP DP  RH WIND       PRES   REMARKS
DOTHAN         PTSUNNY   90  70  51 NE3       30.09F HX  95
OZARK          PTSUNNY   91  67  44 NE6       30.04F HX  95
TROY           MOSUNNY   91  68  46 E5        30.07F HX  95
EUFAULA        FAIR      92  70  48 VRB3      30.05F HX  97
$$


USA.gov is the U.S. government's official web portal to all federal, state and local government web resources and services.